Back to catalog

LEMUR-2-ALYX

AliveScienceSSO
NORAD 69928·PAYLOAD·🇺🇸 United States

Launched Jul 7, 2026 from Vandenberg Space Force Base

Loading…

Next Passes (next 24 hours)

TLE

FreshSource: Space-Track

Epoch: Sep 14, 2026, 12:50 UTC

1 69928U 26156BM  26257.53517795  .00003318  00000-0  32778-3 0  9993
2 69928  97.7492 156.9314 0007177 298.2110  61.8384 14.92599558 10321

Track LEMUR-2-ALYX in real time with AllMySat

Download on the App Store